Tracking 18980 objects as of 19-Feb-2018
HD Live streaming from Space Station
objects crossing your sky now

FENGYUN 1C DEB

Track FENGYUN 1C DEB now!
10-day predictions


NORAD ID: 29828
Int'l Code: 1999-025DW
Perigee: 845.7 km
Apogee: 940.7 km
Inclination: 99.0 °
Period: 102.7 minutes
Semi major axis: 7264 km
RCS: 0.0109 m2 (small)
Launch date: May 10, 1999
Source: People's Republic of China (PRC)
Launch site: Taiyaun Space Center, China (TSC)

Note: This is SATELLITE DEBRIS
aabbcc
Your satellite tracking list
Your tracking list is empty




NASA's NSSDC Master Catalog

Two Line Element Set (TLE):
1 29828U 99025DW  18049.86449366 -.00000094 +00000-0 -31755-4 0  9992
2 29828 099.0299 116.2392 0065392 194.4886 220.6542 14.02233560566923
Source of the keplerian elements: AFSPC